Wind_Speed
4 3 3 4 8 10 6 5 8 11 21 16 10 17 14 23 20 18 19 24 26 27 27 25 28 32 33 38 40 39 38 38 35 32 31 32 32 24 35 37 36 38 39 41
7 5 10 15 13 5 3 5 11 9 23 19 10 16 17 21 19 16 15 16 18 20 24 26 30 31 35 39 37 35 35 33 32 32 32 34 35 35 34 34 38 41 42 44
7 12 20 11 6 3 10 9 17 16 16 17 14 15 14 26 26 18 14 18 19 21 25 27 29 33 36 35 31 30 30 30 32 33 32 31 31 32 35 39 44 48 51 51
8 20 19 5 5 4 8 23 24 17 13 6 17 12 11 21 25 27 15 13 15 20 22 26 28 32 32 29 27 29 31 34 35 37 34 34 35 36 41 49 52 54 56 58
6 9 4 2 13 16 14 18 16 18 10 7 2 7 21 15 12 17 13 12 14 17 23 33 32 31 30 29 31 32 35 41 43 39 37 37 39 44 50 53 56 59 62 63
12 11 6 15 17 17 19 14 13 11 5 13 9 16 17 10 22 14 17 17 18 20 25 35 40 28 32 30 36 41 40 43 40 38 39 41 45 48 51 54 57 60 62 66
7 5 11 9 4 18 6 10 10 5 7 10 20 13 13 25 22 17 17 16 17 21 27 29 16 38 33 38 40 42 46 41 40 40 43 45 48 51 55 57 62 63 68 65
4 14 6 11 6 9 11 8 6 6 9 11 18 4 19 26 21 20 20 25 26 17 26 23 34 33 34 39 38 46 43 42 41 45 47 49 53 57 58 64 64 67 63 61
11 9 25 24 15 5 10 12 11 7 10 10 13 12 24 10 13 21 20 25 26 29 35 34 31 38 36 42 43 43 43 43 44 47 50 54 57 52 61 68 66 65 59 58
12 11 16 19 11 12 4 12 5 10 11 12 16 16 15 15 29 34 30 28 25 27 31 28 35 44 39 41 43 40 39 43 47 50 54 56 58 60 64 66 64 60 58 56
13 10 15 13 4 12 14 15 12 13 14 15 17 17 31 33 35 32 31 32 31 24 24 27 33 40 42 39 38 41 43 47 51 55 57 57 60 64 65 63 62 60 58 54
11 10 9 16 4 16 14 13 16 16 16 17 16 16 32 27 38 40 31 27 31 27 30 31 33 40 41 40 38 41 46 49 53 56 58 60 64 65 63 62 62 59 59 58
13 10 5 10 19 22 9 6 23 21 21 18 14 14 35 39 38 24 29 33 30 33 32 34 36 36 38 39 41 45 47 50 53 55 57 62 64 61 61 60 61 61 58 54
14 12 10 11 21 16 19 21 25 26 19 21 20 26 24 28 35 34 33 32 32 28 34 37 35 35 36 39 42 47 50 54 54 56 58 61 60 58 57 60 60 59 56 49
14 13 15 16 20 21 17 17 21 23 24 22 23 21 24 33 34 30 32 30 29 34 37 38 36 33 36 41 45 48 51 51 53 54 58 58 54 53 55 57 61 57 49 39
17 16 16 17 25 26 19 22 23 23 23 23 23 24 27 18 31 33 32 32 32 33 36 36 34 36 39 44 47 49 51 51 52 54 55 53 49 50 50 54 59 55 41 28
21 19 23 18 25 31 28 24 24 33 26 27 25 28 31 27 29 30 35 36 30 33 32 33 36 39 43 46 49 50 51 51 52 55 52 46 44 45 46 50 52 45 36 26
25 26 26 29 23 24 26 30 34 28 28 25 22 32 25 31 31 32 32 35 32 31 32 36 38 42 45 47 49 49 50 52 53 50 44 40 42 41 42 42 43 37 32 26
30 30 30 27 24 22 23 33 33 36 32 33 24 31 28 24 27 31 32 37 35 30 34 37 40 43 46 46 47 48 51 53 50 42 39 37 37 37 38 35 35 33 28 25
27 28 28 25 21 21 29 27 35 35 29 28 32 31 29 27 23 28 30 29 27 31 33 37 41 44 45 44 45 49 51 47 40 37 36 38 34 35 33 30 30 27 23 21
16 18 14 17 22 18 33 34 26 29 32 28 28 28 28 27 26 25 22 25 27 31 35 39 43 44 43 43 46 49 46 41 39 33 32 35 32 32 28 27 26 24 22 20
22 20 17 16 23 22 30 27 29 25 24 24 24 24 22 21 19 18 21 25 29 33 37 40 42 41 40 41 45 45 41 37 34 30 34 31 30 29 26 25 24 22 20 18
26 26 19 25 23 31 31 28 23 17 19 20 19 17 15 13 15 19 23 27 32 36 38 39 39 39 38 41 44 42 38 35 33 28 35 29 27 26 25 24 22 20 18 17
25 30 28 29 28 30 20 16 14 14 15 13 10 9 11 14 17 22 27 30 33 35 36 36 38 37 37 40 43 41 36 35 30 27 33 28 26 24 23 22 20 18 17 17
26 33 33 28 21 16 16 12 12 13 11 8 8 10 13 16 20 25 28 31 33 35 35 35 36 35 35 39 41 39 35 35 27 29 31 27 24 22 21 21 18 16 15 17
26 25 24 17 16 12 17 11 11 9 8 8 10 11 15 19 22 26 31 32 34 34 34 35 34 33 35 38 39 37 34 32 26 29 29 26 24 22 20 19 17 14 13 17
Wind_Direction
169 179 266 284 235 242 267 295 302 288 291 319 294 290 291 287 295 288 291 287 293 294 292 293 296 300 305 312 314 314 316 319 319 319 318 317 314 296 309 306 309 309 312 312
212 256 262 244 242 263 323 300 297 321 298 321 307 298 271 309 306 297 295 296 295 291 297 300 298 300 305 309 312 313 316 318 320 319 318 313 312 313 314 314 315 317 312 308
189 227 237 263 285 320 282 280 285 289 296 330 333 313 272 310 317 305 302 311 310 302 300 301 301 302 306 311 311 313 315 318 319 318 319 320 317 313 314 316 314 313 311 309
189 249 237 246 252 257 289 284 291 305 316 325 311 334 268 292 309 305 318 329 319 310 306 299 300 308 312 313 313 316 318 321 323 324 321 316 314 313 313 314 310 309 307 306
248 256 224 154 223 283 275 297 318 342 322 319 278 2 270 301 324 312 314 307 305 304 303 311 317 319 316 315 313 318 324 328 324 323 321 319 315 311 311 310 308 308 309 308
225 212 187 228 276 314 318 344 308 7 357 306 264 311 285 298 310 299 310 312 305 316 303 306 320 318 321 316 318 321 322 322 323 321 320 314 311 309 308 309 312 312 310 309
247 252 264 279 328 290 342 347 1 339 318 296 291 318 260 286 298 312 313 306 306 306 297 309 291 316 308 318 322 324 323 323 322 320 317 314 312 311 313 315 315 313 313 314
235 269 274 285 273 239 293 24 296 300 298 293 283 252 300 305 309 313 319 321 318 313 295 287 293 314 313 313 316 316 317 321 317 318 318 317 316 316 317 317 316 316 315 314
219 269 275 283 296 314 318 293 329 6 297 328 315 316 305 293 330 326 323 321 322 311 297 305 307 304 315 314 319 315 320 318 317 318 319 319 320 317 313 315 317 316 315 314
219 205 276 289 311 299 82 312 331 338 317 308 295 320 304 302 292 297 311 319 305 293 297 304 307 311 319 319 318 319 319 320 320 321 320 321 321 318 316 318 317 315 314 312
226 224 251 320 291 301 343 339 343 335 321 321 314 299 281 289 299 304 314 312 313 319 311 305 308 311 319 319 318 315 322 322 322 321 323 323 322 320 320 320 317 315 313 312
251 241 240 276 341 279 263 252 305 320 309 312 334 305 291 297 305 308 313 319 320 313 310 318 316 317 317 316 319 320 322 322 322 324 324 323 323 323 322 320 319 317 314 311
251 273 263 277 272 295 298 316 312 317 329 322 315 311 300 296 300 319 319 322 319 319 314 318 318 317 315 319 321 321 322 323 323 324 323 325 325 324 324 323 321 319 315 310
261 259 241 248 304 331 329 303 315 314 328 305 302 294 314 300 304 313 315 312 310 309 313 316 318 315 317 319 321 323 323 325 326 325 325 326 327 327 327 326 328 324 317 311
253 260 268 268 273 292 292 301 293 297 297 301 306 312 300 295 309 308 318 318 312 311 317 321 320 318 318 323 325 324 324 325 325 324 326 329 329 330 331 334 337 332 325 318
259 269 276 276 298 300 300 302 303 307 303 307 304 318 303 297 302 313 312 311 310 317 321 318 320 322 326 326 324 323 327 327 324 326 329 329 333 333 338 341 344 344 345 340
269 270 287 291 284 291 304 293 279 295 302 296 303 292 313 301 310 311 310 306 319 327 321 322 324 326 328 324 325 327 328 326 328 330 328 332 335 338 343 345 350 358 5 10
272 276 283 289 287 302 292 302 304 311 310 312 301 294 291 303 311 314 316 298 332 324 325 327 328 327 327 328 329 329 328 329 331 329 332 336 338 344 346 351 356 10 21 29
268 274 276 278 286 285 285 283 294 297 302 300 291 293 299 307 311 322 312 330 320 323 328 329 327 328 329 330 332 330 331 333 332 333 337 339 342 346 348 354 358 8 24 35
266 272 272 269 276 284 270 278 292 296 300 290 301 305 310 311 311 304 315 319 324 324 327 325 327 329 332 334 332 334 337 338 337 338 341 342 346 349 352 358 1 8 16 28
293 284 272 275 268 275 272 286 297 296 298 306 303 309 311 311 311 314 314 318 321 325 325 327 330 333 336 335 336 339 341 338 337 341 344 346 349 351 356 1 3 7 17 28
254 265 268 269 269 274 291 297 299 298 300 301 306 311 317 320 320 316 319 323 324 325 326 328 332 338 337 335 339 342 344 341 348 345 348 350 351 354 359 4 7 8 16 22
275 269 275 276 280 294 296 298 298 297 299 307 312 318 324 328 323 323 323 322 324 326 328 330 335 339 338 339 342 345 344 345 348 349 351 352 352 357 2 7 11 14 24 31
273 280 283 288 287 286 291 287 289 295 308 317 329 330 325 322 320 321 322 324 325 325 331 335 338 340 339 340 345 349 345 346 349 351 354 353 354 359 3 9 15 21 34 43
263 283 286 286 280 281 282 282 292 307 304 303 310 313 314 314 317 320 322 323 325 331 334 335 338 341 340 342 348 350 347 349 349 353 357 354 358 4 5 9 18 28 40 44
271 269 271 285 287 289 285 286 294 303 300 294 299 306 309 312 317 320 322 324 329 332 332 333 337 340 341 343 348 351 346 351 349 354 359 356 2 7 9 11 20 31 45 47
Height
5932 5937 5942 5938 5939 5939 5939 5940 5941 5937 5930 5928 5930 5926 5925 5919 5917 5914 5911 5908 5905 5904 5897 5896 5893 5890 5885 5881 5876 5870 5864 5858 5852 5847 5841 5836 5832 5835 5822 5817 5814 5809 5802 5796
5937 5938 5939 5937 5937 5937 5938 5940 5933 5935 5928 5925 5925 5924 5921 5915 5912 5910 5907 5905 5903 5899 5895 5892 5890 5886 5881 5876 5871 5864 5858 5853 5847 5842 5837 5831 5825 5819 5814 5810 5804 5798 5793 5788
5937 5937 5934 5935 5936 5937 5935 5934 5931 5929 5925 5923 5921 5920 5916 5911 5909 5908 5906 5903 5899 5896 5893 5888 5885 5881 5876 5871 5865 5859 5854 5848 5842 5835 5830 5825 5820 5815 5809 5803 5796 5789 5782 5777
5937 5932 5933 5934 5937 5934 5937 5927 5927 5925 5924 5928 5921 5924 5916 5913 5907 5904 5900 5897 5895 5891 5888 5883 5880 5875 5869 5864 5859 5854 5849 5842 5836 5830 5824 5819 5814 5808 5802 5796 5788 5780 5773 5765
5936 5931 5931 5935 5931 5930 5930 5926 5923 5922 5922 5921 5919 5923 5913 5911 5910 5904 5902 5898 5895 5891 5886 5879 5870 5866 5863 5858 5853 5848 5841 5835 5829 5824 5818 5812 5807 5802 5794 5786 5778 5769 5760 5751
5931 5929 5931 5930 5929 5927 5924 5924 5924 5921 5923 5922 5918 5920 5916 5908 5908 5906 5901 5896 5894 5890 5884 5875 5867 5862 5857 5853 5847 5841 5837 5831 5825 5819 5813 5807 5801 5793 5785 5776 5766 5757 5747 5737
5927 5927 5925 5925 5929 5925 5925 5924 5925 5923 5923 5925 5916 5917 5908 5907 5904 5901 5897 5895 5893 5889 5882 5875 5866 5859 5855 5847 5842 5836 5831 5825 5819 5812 5806 5799 5791 5782 5773 5765 5755 5744 5733 5722
5930 5927 5923 5922 5925 5926 5924 5923 5923 5923 5923 5921 5915 5912 5907 5904 5900 5896 5892 5889 5884 5883 5880 5874 5864 5857 5852 5844 5839 5832 5826 5819 5812 5805 5797 5789 5780 5770 5761 5751 5741 5730 5719 5708
5930 5929 5923 5923 5921 5922 5921 5920 5919 5918 5914 5917 5915 5912 5909 5898 5899 5894 5892 5888 5884 5879 5871 5864 5858 5853 5846 5838 5832 5827 5819 5812 5805 5797 5788 5779 5770 5759 5749 5738 5726 5716 5706 5696
5924 5925 5922 5918 5919 5917 5918 5918 5920 5917 5917 5914 5912 5912 5897 5898 5892 5890 5886 5881 5877 5871 5867 5861 5853 5845 5840 5832 5826 5819 5813 5806 5797 5788 5779 5769 5759 5749 5737 5725 5714 5703 5693 5683
5918 5920 5918 5917 5918 5915 5917 5913 5914 5914 5913 5912 5910 5910 5898 5893 5889 5883 5879 5874 5869 5865 5862 5856 5849 5840 5832 5827 5821 5813 5806 5797 5787 5778 5770 5760 5748 5736 5724 5712 5700 5690 5679 5670
5915 5916 5919 5911 5912 5915 5913 5913 5911 5909 5909 5907 5905 5904 5892 5884 5881 5875 5873 5867 5862 5859 5854 5849 5841 5833 5827 5820 5815 5807 5799 5790 5780 5770 5759 5748 5737 5725 5712 5699 5687 5676 5666 5656
5912 5913 5916 5918 5912 5907 5905 5904 5905 5902 5900 5902 5902 5902 5890 5883 5875 5871 5865 5861 5858 5852 5847 5842 5836 5829 5821 5815 5808 5801 5793 5782 5772 5761 5750 5738 5726 5713 5701 5688 5675 5662 5650 5641
5910 5911 5912 5916 5908 5906 5907 5906 5903 5899 5898 5897 5897 5889 5886 5879 5870 5865 5860 5857 5853 5848 5841 5836 5830 5824 5817 5809 5802 5793 5784 5775 5764 5753 5742 5730 5717 5704 5691 5678 5663 5648 5634 5624
5907 5908 5910 5910 5907 5905 5905 5904 5903 5899 5896 5890 5887 5884 5879 5870 5866 5860 5854 5850 5847 5841 5836 5829 5823 5817 5811 5804 5795 5786 5777 5767 5757 5746 5734 5721 5708 5697 5684 5669 5653 5635 5621 5611
5903 5904 5903 5905 5901 5898 5898 5898 5895 5892 5889 5885 5881 5878 5867 5866 5859 5854 5849 5845 5840 5836 5830 5824 5818 5811 5805 5797 5789 5780 5771 5761 5749 5738 5726 5714 5703 5692 5679 5665 5649 5629 5613 5604
5898 5900 5898 5900 5896 5893 5893 5890 5888 5885 5881 5877 5874 5869 5862 5858 5852 5847 5842 5837 5835 5830 5824 5819 5813 5806 5800 5792 5783 5774 5764 5753 5742 5731 5719 5708 5698 5687 5676 5664 5650 5632 5618 5609
5893 5893 5895 5894 5894 5892 5887 5882 5879 5876 5873 5869 5867 5861 5857 5850 5845 5842 5836 5826 5829 5824 5819 5815 5809 5802 5795 5786 5777 5768 5757 5746 5736 5724 5713 5704 5695 5684 5674 5664 5653 5640 5627 5620
5886 5886 5888 5887 5889 5889 5886 5875 5874 5871 5869 5862 5859 5854 5850 5846 5841 5836 5827 5823 5826 5820 5816 5811 5804 5797 5789 5781 5771 5762 5750 5740 5728 5719 5710 5701 5692 5682 5674 5664 5656 5646 5636 5628
5877 5879 5881 5880 5881 5882 5876 5866 5869 5864 5862 5854 5852 5848 5845 5842 5837 5836 5831 5826 5822 5818 5814 5807 5800 5793 5784 5776 5766 5756 5745 5734 5724 5715 5707 5699 5690 5681 5673 5665 5658 5651 5643 5636
5874 5872 5875 5877 5875 5877 5866 5864 5863 5859 5855 5850 5847 5843 5840 5838 5835 5831 5827 5824 5820 5815 5809 5803 5795 5788 5780 5771 5761 5751 5740 5730 5721 5713 5705 5697 5689 5681 5673 5666 5660 5654 5647 5641
5870 5869 5870 5868 5867 5866 5859 5857 5855 5852 5847 5844 5841 5838 5835 5833 5830 5828 5825 5821 5817 5812 5805 5799 5791 5784 5775 5766 5756 5747 5737 5728 5719 5711 5704 5695 5689 5682 5674 5668 5662 5657 5651 5646
5861 5859 5862 5859 5860 5852 5851 5849 5846 5845 5842 5839 5836 5834 5832 5830 5828 5825 5822 5818 5813 5807 5801 5794 5787 5780 5771 5762 5753 5743 5734 5725 5717 5710 5703 5695 5689 5683 5676 5670 5665 5660 5654 5650
5853 5850 5852 5851 5850 5847 5845 5843 5842 5840 5838 5836 5834 5832 5830 5828 5825 5822 5818 5814 5809 5803 5796 5789 5783 5776 5769 5760 5750 5741 5733 5724 5716 5710 5702 5696 5690 5684 5678 5672 5668 5663 5659 5655
5847 5842 5842 5841 5842 5841 5839 5839 5837 5836 5835 5833 5832 5830 5828 5825 5822 5819 5815 5810 5805 5798 5792 5786 5780 5773 5765 5757 5748 5740 5732 5723 5716 5709 5702 5697 5691 5685 5680 5675 5671 5667 5664 5660
5838 5836 5836 5837 5835 5836 5834 5834 5834 5833 5832 5830 5829 5827 5825 5822 5819 5815 5810 5805 5800 5794 5788 5782 5776 5769 5762 5754 5746 5738 5731 5723 5716 5710 5703 5698 5693 5687 5683 5678 5675 5671 5668 5666